Weather in Bolshaya Sakma

Russia / Saratov Oblast     51°52′31″N   48°31′37″E
temp.,
°C
wind,
m/s
gust,
m/s
humid.,
%
clouds,
%
prec.,
mm/h
press.,
hPa
HPBL,
m
16 may, sun
sun1601:00+21sse514485 0.0 1017241
04:00+18s48485 0.0 1018105
07:00+20sse394910 0.0 1018193
10:00+27s58305 0.0 1018675
13:00+31s69215 0.0 10182991
16:00+32s68205 0.0 10173640
19:00+28sse47355 0.0 1016117
22:00+23se473854 0.0 101692
17 may, mon
mon1701:00+22se51342100 0.0 1016235
04:00+20s36475 0.0 101778
07:00+22s12495 0.0 101884
10:00+28se45325 0.0 1018567
13:00+31sse57175 0.0 10183343
16:00+31sse66185 0.0 10173405
19:00+27se483312 0.0 1017195
22:00+22ese34345 0.0 101738
18 may, tue
tue1801:00+20ese46365 0.0 101772
04:00+18ese48395 0.0 1016106
07:00+20ese512445 0.0 1016230
10:00+27se69305 0.0 1016616
13:00+32se67200 0.0 10152395
16:00+32se66185 0.0 10153832
19:00+28e47320 0.0 1015128
22:00+23ese45390 0.0 101561
19 may, wed
wed1901:00+20e48380 0.0 1014116
04:00+19e512440 0.0 1014167
07:00+21e511502 0.0 1014265
10:00+27ese79360 0.0 1014677
13:00+31ese79265 0.0 10133426
16:00+31ese810269 0.0 10123448
19:00+27e612424 0.0 1011377
22:00+24ese817480 0.0 1012697
20 may, thu
thu2001:00+21ese816540 0.3 1013603
04:00+20se714604 0.3 1013604
07:00+19ssw457933 0.2 1015305
10:00+21ssw3466100 0.2 1015705
13:00+15sw4681100 1.9 1017268
16:00+21sse576025 1.9 10171255
19:00+20se4665100 0.0 1017226
22:00+17ssw117587 0.0 101814